Wind_Speed
37 38 36 33 32 35 37 37 37 36 35 35 34 34 33 32 31 32 34 35 34 34 31 31 31 30 30 30 28 28 27 26 26 25 25 24 23 22 22 22 21 21 21 22 23 24 25 25 25 26 26 26 27 28 29 29 30 30 31 32 32 33 33 34 35 36 36 37 38 39 39 40 41 42 43 44 45 46 47 48 49 49 50 51 51 52
38 38 34 32 35 37 37 37 37 37 36 36 35 35 34 34 33 34 36 36 35 35 33 32 31 30 31 30 28 28 27 26 26 25 25 24 23 22 22 21 21 21 22 24 25 26 27 27 27 28 28 28 29 29 30 30 31 31 32 32 33 33 34 35 36 37 38 39 40 41 42 43 44 45 46 47 48 49 49 50 51 51 51 52 52 53
39 38 35 35 39 38 38 38 39 38 38 38 37 37 36 35 36 37 37 37 36 36 35 34 32 31 31 29 27 27 26 26 26 25 24 23 22 22 21 21 21 23 24 26 27 28 28 28 29 29 30 30 30 31 31 31 32 32 32 33 33 34 35 36 38 39 40 41 42 44 44 45 46 47 48 49 50 51 51 52 53 53 53 54 54 54
42 40 39 40 41 40 40 40 40 40 40 39 39 40 39 37 38 39 38 37 37 36 36 35 33 30 29 27 26 26 26 25 25 24 23 23 22 22 21 22 23 24 25 27 28 29 29 29 30 31 31 32 32 32 33 33 33 34 34 35 36 37 38 40 41 42 43 44 45 46 47 48 48 49 50 50 51 52 52 53 54 54 55 55 56 56
45 43 43 43 42 42 43 42 42 41 41 41 40 41 40 40 40 40 39 38 38 37 35 35 34 30 28 27 26 26 25 25 25 24 23 23 22 22 23 24 25 26 28 29 30 30 30 31 32 32 32 33 34 34 35 35 36 37 37 38 39 40 42 43 43 44 45 46 46 47 48 49 49 50 50 51 52 52 53 53 54 55 56 57 57 58
47 46 45 44 44 44 45 44 43 42 42 42 41 41 41 42 41 40 39 39 38 36 34 34 34 30 27 27 26 25 26 25 25 24 23 23 23 24 25 26 28 29 31 32 32 32 32 33 33 34 34 34 35 36 36 37 38 39 40 41 41 42 43 44 44 45 45 46 46 47 48 49 49 50 50 51 52 52 53 54 55 56 57 57 59 59
48 47 45 45 45 45 46 45 43 43 44 43 41 41 42 42 41 40 39 39 38 36 35 34 33 29 26 26 26 27 27 26 24 24 24 24 25 26 28 29 31 32 33 34 34 34 34 34 35 35 36 36 36 37 37 38 39 40 41 41 42 42 42 43 44 44 45 46 47 47 48 49 49 50 50 51 52 53 54 54 55 56 57 58 59 60
47 46 46 46 46 47 47 45 43 44 46 44 41 41 41 41 41 40 39 39 38 37 35 33 31 30 27 25 27 28 27 26 24 25 25 26 27 28 30 32 33 34 35 35 34 35 36 36 37 37 37 37 38 38 39 39 40 41 42 42 43 43 43 44 44 45 45 46 47 47 48 49 49 50 51 51 52 53 54 55 55 56 57 58 59 60
46 47 46 46 46 46 44 42 43 45 45 43 41 40 40 40 40 39 39 39 38 37 35 31 29 30 29 26 26 27 27 26 26 25 26 27 29 31 32 33 34 35 35 35 36 37 38 38 38 38 38 38 38 38 39 39 40 41 42 43 44 44 45 45 46 46 46 47 48 48 49 50 50 51 51 52 53 53 54 54 55 56 56 57 58 59
47 46 45 44 43 42 41 41 42 43 43 42 41 40 39 39 39 38 38 37 37 37 34 29 28 30 31 28 26 25 26 26 26 27 28 30 32 34 35 35 36 36 36 36 37 38 38 38 38 38 38 38 38 38 38 39 40 41 42 43 44 45 46 46 47 47 48 48 49 50 50 51 51 52 52 53 54 54 54 55 55 56 57 57 58 59
45 44 43 41 39 39 39 40 40 40 41 40 39 38 37 38 38 37 37 36 36 36 31 27 28 30 32 31 28 26 26 27 28 29 31 33 35 36 37 37 37 37 37 37 38 37 37 38 38 38 39 39 39 39 39 40 41 42 42 44 45 45 46 47 47 47 48 49 50 51 51 52 53 53 54 55 55 56 56 56 57 58 58 59 60 61
43 41 39 37 37 37 37 37 37 38 38 37 36 35 35 37 37 36 36 35 36 34 29 28 30 31 33 33 31 30 30 31 33 34 36 37 38 39 38 38 38 38 39 40 39 38 37 37 37 38 38 39 40 41 41 42 42 43 43 44 45 46 46 47 47 48 49 50 51 51 52 53 54 55 56 56 57 58 58 59 59 60 61 61 62 63
41 39 37 36 35 34 33 34 34 34 34 33 33 32 34 36 36 36 36 35 34 32 31 31 32 33 34 34 34 35 36 37 39 40 40 40 40 40 39 39 39 39 41 42 42 41 40 39 39 39 40 41 42 42 43 43 43 44 44 45 46 47 47 48 49 50 51 52 53 54 55 55 56 57 58 58 59 60 61 61 62 63 63 64 65 66
38 37 35 34 32 30 31 31 31 31 31 31 31 32 34 36 36 36 35 33 33 33 33 34 35 37 37 35 36 38 39 41 42 43 43 43 42 41 39 39 40 41 43 44 44 44 43 42 42 42 43 44 44 45 45 45 45 46 46 47 48 49 50 51 52 53 54 55 56 57 57 58 59 59 60 61 62 63 63 64 65 65 65 66 67 68
36 35 33 32 31 30 30 30 29 30 30 30 31 32 35 35 35 35 34 34 35 35 36 37 39 40 40 39 40 41 42 43 43 45 45 44 43 41 40 40 41 43 45 46 46 44 43 43 43 45 46 46 47 47 47 48 48 49 50 51 52 52 53 54 55 56 57 58 58 59 60 60 61 62 63 64 64 65 66 67 67 67 68 69 69 70
35 34 33 32 31 30 30 30 30 31 30 30 31 33 34 33 34 35 37 38 39 39 41 41 41 42 43 44 45 45 45 45 46 46 46 44 43 42 42 42 44 45 46 46 45 44 43 44 45 46 47 48 49 49 50 50 51 51 52 53 54 55 56 57 57 58 59 60 61 62 62 63 63 64 65 66 67 67 68 68 68 69 69 70 70 70
35 35 33 33 32 31 31 32 32 32 32 33 35 35 33 33 36 39 41 42 42 44 45 44 44 45 46 47 48 47 48 48 48 46 45 43 42 42 43 44 45 47 47 47 46 45 45 46 47 48 49 49 50 51 51 52 53 54 55 56 56 57 58 59 60 60 61 62 63 64 65 65 66 66 67 68 68 69 69 69 69 69 69 70 70 70
37 36 35 34 33 33 34 34 34 35 35 36 37 36 35 38 41 43 45 46 46 47 48 47 47 47 48 49 49 49 49 49 47 45 43 43 42 43 44 45 47 49 49 48 47 47 47 47 48 49 50 51 52 52 53 54 55 55 56 57 58 59 60 60 61 62 63 64 65 65 66 66 67 68 68 69 69 69 70 70 70 70 70 70 71 71
38 38 37 37 36 35 35 36 37 38 37 38 38 39 40 44 46 46 48 48 48 49 50 49 48 49 50 50 50 50 49 47 45 43 43 42 43 44 45 47 49 50 49 49 48 48 49 49 50 51 52 53 54 54 55 55 56 57 58 58 59 60 61 62 63 64 65 66 66 67 67 68 68 69 69 69 70 70 70 70 71 70 70 70 70 70
40 41 41 40 39 38 38 40 40 39 38 39 41 43 45 47 48 48 48 49 49 50 50 49 50 51 51 50 50 49 48 46 44 44 44 45 46 47 49 50 49 49 49 49 50 50 50 51 52 54 55 55 56 56 56 57 58 58 59 60 61 62 63 64 65 65 66 67 68 69 69 70 70 70 70 71 71 71 71 71 70 69 69 69 70 70
44 44 44 43 42 42 43 43 42 41 42 43 45 46 48 49 49 48 48 49 49 48 48 50 53 54 53 52 51 48 46 47 46 46 47 48 50 51 50 49 49 49 50 51 51 52 52 54 55 56 57 57 57 57 57 58 59 60 60 61 62 63 64 65 66 66 67 68 69 70 70 71 71 71 71 71 72 72 72 71 70 70 70 70 71 71
46 46 45 45 45 45 45 45 45 46 47 46 47 49 50 51 49 48 49 48 48 48 49 52 54 55 55 55 54 51 50 51 50 49 50 51 51 50 48 48 50 52 53 53 53 54 55 57 57 58 58 57 58 58 58 59 60 61 62 62 63 64 65 66 66 67 68 69 70 70 71 71 71 71 71 71 71 71 70 70 70 70 70 71 71 71
45 46 46 47 47 47 48 49 51 51 50 50 51 51 52 53 51 49 48 47 48 50 51 53 54 56 57 57 56 55 55 55 53 53 53 53 52 50 49 51 53 54 54 54 55 57 58 59 59 58 59 59 59 59 60 61 61 62 63 64 64 65 66 66 67 68 68 69 70 70 71 71 71 71 71 70 69 69 68 68 69 69 69 70 70 70
47 48 49 51 51 50 51 52 53 53 53 53 52 51 51 53 52 49 48 49 52 52 52 54 56 58 58 57 57 57 57 55 55 55 55 54 53 53 54 56 56 56 56 57 59 60 60 60 59 59 60 60 60 60 61 62 63 64 65 65 65 66 66 67 67 68 68 69 70 71 71 71 70 69 69 68 67 67 67 67 68 68 69 69 70 71
52 53 54 55 55 54 54 54 54 54 54 52 51 50 51 52 54 54 53 53 55 54 54 57 59 59 58 57 57 58 56 55 56 55 54 53 53 55 57 58 57 58 59 61 62 62 61 61 60 60 59 60 60 61 63 64 65 66 66 66 67 67 67 67 68 68 69 69 70 70 69 69 67 67 67 67 67 67 67 68 68 69 70 71 71 72
56 57 57 57 57 56 56 55 53 51 50 50 50 50 51 53 57 58 56 57 59 57 58 60 61 58 55 56 58 56 54 54 54 54 53 54 56 57 58 58 58 59 61 62 62 61 61 60 59 59 59 60 61 62 63 65 66 66 67 67 67 66 67 67 68 69 69 69 68 67 66 65 65 66 67 67 67 68 68 69 70 70 71 72 73 73
59 60 59 58 56 56 56 55 52 50 51 51 48 47 50 54 57 58 58 59 59 60 62 62 59 56 55 56 56 53 52 53 52 52 54 56 58 59 59 59 60 61 62 62 62 61 60 58 58 59 60 61 62 63 65 66 66 66 66 66 66 66 67 68 69 69 68 67 66 65 65 65 66 67 67 67 68 69 69 70 71 71 72 73 74 74
61 61 60 59 58 59 58 57 55 54 54 52 51 51 52 54 57 58 59 59 60 63 63 60 57 56 55 54 53 52 52 52 52 53 56 58 59 59 60 61 61 62 63 62 61 60 59 59 60 60 61 61 63 64 65 65 66 66 66 66 66 66 67 67 68 67 66 66 66 66 66 66 67 68 68 68 69 70 70 71 71 72 73 74 75 76
58 59 58 57 58 59 59 57 56 56 56 56 55 55 55 55 56 58 60 61 62 63 61 59 58 58 56 55 54 52 51 52 54 57 58 58 59 60 62 63 63 63 63 61 59 59 60 61 61 61 62 63 64 64 65 65 66 66 65 65 65 66 66 66 65 65 66 66 66 66 66 67 68 68 69 69 70 71 72 72 73 74 75 75 76 77
53 55 54 54 55 57 58 59 59 59 59 58 55 54 54 57 61 63 64 64 62 62 61 60 59 58 57 57 54 51 52 55 56 57 58 59 61 63 64 64 64 63 61 60 60 61 61 61 61 62 63 64 64 65 65 65 66 65 65 65 65 65 66 66 65 66 66 66 66 67 67 68 69 70 70 71 72 72 73 74 74 75 76 77 78 79
52 54 54 55 57 58 59 61 62 62 60 59 57 56 58 62 66 66 63 61 61 62 59 57 59 59 58 55 52 52 55 57 57 58 60 62 64 65 65 65 63 62 61 61 62 61 61 62 63 64 64 64 65 65 65 65 66 66 65 65 65 66 67 67 67 67 67 67 68 68 69 70 71 71 72 72 73 73 74 75 76 77 78 79 80 81
53 55 56 57 60 61 60 61 62 61 61 62 61 61 63 65 64 61 59 58 59 58 55 56 60 59 55 53 53 55 57 58 59 61 63 64 66 66 65 64 62 62 62 62 61 61 62 63 63 64 64 65 65 65 64 64 65 65 65 64 65 66 66 66 66 66 67 68 69 70 71 71 71 72 73 74 75 75 76 77 78 79 79 79 80 81
53 54 55 57 59 60 59 59 59 59 61 62 59 57 59 59 57 55 56 56 56 55 56 58 58 55 53 55 58 59 60 61 62 63 65 66 66 65 64 62 62 61 61 60 60 61 62 62 63 63 64 64 63 63 63 63 63 63 62 62 63 64 64 64 65 67 68 69 69 70 71 72 73 74 75 76 77 78 78 78 78 78 78 79 80 80
52 54 55 57 59 60 60 59 58 59 62 61 55 51 53 54 53 54 56 56 56 56 57 57 56 55 57 60 61 62 62 63 64 65 65 65 63 62 62 61 60 60 60 60 60 61 62 62 62 62 62 62 61 61 61 61 61 59 59 60 61 62 63 64 65 67 68 69 69 71 72 74 75 76 77 77 77 77 77 77 76 77 77 78 78 77
54 56 57 59 60 61 61 60 61 63 63 58 52 52 54 55 54 54 55 55 56 57 57 58 58 58 60 62 62 62 63 64 65 65 64 62 61 61 61 60 60 60 60 60 61 61 62 62 62 61 60 60 59 59 59 58 57 56 57 59 61 62 63 65 66 67 68 70 71 73 74 75 76 76 76 76 76 75 74 74 74 75 75 75 74 72
56 58 59 60 61 61 61 61 63 63 60 56 55 56 56 54 53 54 56 56 56 58 60 60 60 60 62 62 62 62 63 64 64 63 62 61 60 61 61 60 60 60 60 61 62 62 62 61 60 59 58 58 57 56 56 55 55 56 58 61 62 63 64 65 67 68 70 71 72 73 74 74 75 75 74 73 72 71 71 72 72 72 71 69 67 65
58 60 60 61 61 61 60 60 61 61 60 59 57 56 55 54 54 56 59 59 58 61 63 62 63 63 62 62 62 62 62 63 63 61 59 60 60 60 60 60 60 61 61 62 61 60 59 58 57 57 56 56 55 55 55 56 57 59 61 62 64 64 65 66 68 68 69 70 71 72 72 73 72 71 70 69 68 68 69 69 68 66 64 62 59 57
58 59 59 59 59 58 58 58 59 61 61 58 54 53 55 56 56 59 63 62 61 64 67 67 65 63 61 61 62 63 63 63 62 59 59 61 61 60 60 60 60 61 61 60 58 57 56 56 55 55 55 56 56 56 57 59 60 61 62 63 64 64 66 67 67 67 68 69 69 69 69 68 67 66 65 65 65 66 65 64 61 59 56 54 53 53
57 57 56 56 56 56 57 59 59 61 62 57 54 55 56 58 60 63 67 67 66 67 69 66 61 61 61 63 64 64 64 64 61 60 62 63 61 60 60 59 59 58 57 57 56 55 55 55 55 56 56 57 57 58 59 60 61 62 62 63 64 65 65 65 64 65 65 65 64 64 63 63 63 62 62 62 62 62 59 57 54 52 51 51 51 51
56 55 55 56 57 57 59 61 62 63 62 59 58 59 60 63 65 66 69 71 69 67 65 62 61 64 66 66 66 64 64 63 62 62 63 61 59 58 58 56 56 56 56 56 56 56 56 56 57 58 58 59 60 61 62 62 62 62 63 63 63 62 61 60 60 60 60 60 59 60 60 60 60 59 59 59 58 56 53 51 49 49 49 49 50 50
57 58 58 59 60 60 62 64 66 67 66 64 64 64 64 65 68 68 70 70 67 66 67 68 69 69 67 65 64 63 62 62 62 62 60 58 57 56 55 55 55 56 56 57 57 57 58 58 59 60 62 63 64 64 63 63 63 62 60 59 57 55 54 55 56 56 57 57 57 58 57 57 57 56 56 55 53 50 49 48 48 48 48 49 49 50
61 61 63 63 64 65 66 66 66 68 68 66 64 64 64 66 68 69 69 69 68 69 70 70 68 66 64 64 63 62 62 61 61 59 58 57 56 55 55 55 56 57 58 59 59 59 60 61 63 64 65 65 65 65 64 62 60 57 54 52 50 50 52 53 54 55 55 56 55 55 55 54 54 53 53 51 49 47 47 47 47 48 48 48 50 52
65 66 68 68 68 68 67 66 68 69 68 64 62 63 65 66 67 67 68 69 68 67 65 63 62 62 63 64 63 61 60 60 59 58 57 57 56 55 56 56 58 59 60 61 61 62 63 64 65 66 66 66 65 63 60 57 53 50 49 48 49 50 52 53 53 53 53 53 53 53 52 51 51 51 50 48 47 47 47 47 47 47 48 49 51 53
70 71 71 70 69 68 68 69 71 70 68 65 64 63 62 62 63 63 63 62 61 59 59 60 62 63 63 62 61 59 57 57 57 57 57 56 56 56 57 58 60 61 62 63 64 65 65 66 66 66 65 63 60 56 53 49 48 47 47 48 49 51 51 51 51 51 51 51 51 50 49 48 49 49 48 47 46 46 46 46 47 48 49 51 52 54
71 71 70 71 71 70 69 69 70 69 67 65 62 59 58 57 58 58 57 55 56 57 59 60 61 62 61 60 59 57 56 55 55 56 57 57 57 58 59 61 62 63 64 65 65 65 65 65 65 63 61 57 53 49 47 46 46 46 47 48 49 50 51 50 49 49 49 49 49 48 47 46 47 48 47 46 45 45 45 46 47 49 51 52 54 55
69 70 71 72 72 71 70 69 69 66 62 58 57 57 57 56 55 54 54 55 57 59 60 60 60 60 59 58 57 57 56 56 56 57 58 59 60 61 62 63 64 65 65 65 65 64 64 62 60 57 53 49 47 46 45 46 46 46 46 48 49 50 49 49 48 48 48 48 47 46 45 45 46 46 45 45 45 45 46 47 49 51 53 55 56 57
68 68 69 70 70 70 70 70 67 62 58 56 56 56 55 54 54 55 56 58 60 60 60 60 59 59 58 58 58 57 57 57 58 59 60 61 63 64 65 65 65 65 65 64 62 61 58 55 52 50 47 45 44 44 45 46 46 46 47 47 48 48 48 48 48 47 47 47 46 45 43 44 46 45 45 45 45 46 47 49 50 53 55 57 58 59
63 63 64 66 67 67 66 65 62 59 57 56 55 55 54 55 56 58 60 61 61 60 60 60 60 59 59 59 60 60 60 59 60 61 63 64 64 65 66 66 65 64 62 59 57 54 51 48 46 45 44 43 43 45 46 46 46 47 47 46 46 47 47 48 48 48 47 47 46 45 43 44 46 46 45 46 46 47 49 51 52 54 56 58 59 60
59 62 63 63 62 61 60 58 56 55 55 55 55 57 58 59 60 62 62 62 61 60 60 60 61 61 62 62 62 63 62 62 63 64 65 65 65 65 65 63 61 58 55 52 50 48 46 45 44 43 42 42 43 45 46 47 47 48 47 46 46 47 47 48 48 48 48 48 47 46 45 45 46 47 47 48 48 50 52 53 55 56 58 59 61 61
59 60 60 58 57 56 54 53 53 55 57 58 59 60 61 61 62 63 63 62 61 61 61 62 63 64 64 64 64 65 65 65 65 65 65 64 63 62 60 58 54 51 48 46 46 45 44 44 43 42 42 42 44 45 47 47 48 47 47 46 46 47 48 49 49 49 49 49 49 49 47 47 47 49 49 50 51 52 54 55 57 58 59 60 62 62
54 54 55 55 56 55 53 53 55 57 57 58 59 61 62 62 62 63 63 62 62 62 63 65 65 65 64 64 65 66 65 64 64 63 62 60 58 56 53 51 48 45 44 44 44 44 43 43 43 43 43 44 45 46 47 47 47 47 47 48 48 48 49 50 50 51 51 52 52 51 50 49 49 50 51 52 53 54 55 57 58 59 60 61 62 63
Wind_Direction
272 272 273 276 277 273 272 273 274 275 275 275 274 273 273 274 275 274 272 272 273 274 277 276 272 269 267 267 268 268 267 267 266 265 264 262 262 264 266 268 271 274 278 282 285 286 287 287 287 286 285 283 282 281 280 279 279 278 277 277 276 277 277 277 278 278 279 279 278 278 278 278 277 277 278 278 278 279 279 279 279 280 280 280 279 279
272 273 275 276 273 272 273 275 276 275 275 274 273 273 273 275 276 275 274 274 274 276 280 279 274 269 266 266 266 266 265 264 263 261 261 261 262 263 264 267 271 276 281 285 287 287 288 288 288 287 286 285 284 284 283 282 280 279 278 278 278 279 279 279 280 280 280 280 280 280 280 279 279 279 280 280 280 281 281 281 281 281 281 280 280 280
272 273 274 273 272 273 275 275 275 275 274 273 273 273 273 275 276 275 275 276 275 277 281 280 274 269 267 266 265 263 262 261 261 260 260 261 261 262 264 269 275 281 286 289 289 289 288 287 287 287 286 286 285 285 284 284 283 282 282 282 282 282 282 281 281 281 281 281 281 281 281 281 281 281 281 281 281 281 281 281 281 281 281 281 281 281
272 273 272 271 272 274 274 274 275 275 275 274 273 272 273 275 274 274 276 277 277 277 278 277 272 269 267 265 262 261 259 258 258 259 260 260 260 262 266 273 280 286 291 294 294 292 290 289 288 287 287 286 286 286 285 285 284 284 284 283 283 283 282 282 281 281 280 280 280 279 279 279 279 279 279 280 280 280 280 280 280 280 281 281 281 281
270 271 271 272 274 274 274 274 274 275 275 274 273 272 272 272 272 273 275 277 276 275 274 272 270 267 266 264 261 259 258 257 257 258 258 259 259 263 270 278 284 289 293 295 295 294 293 292 291 289 288 287 286 285 284 283 283 282 281 281 280 280 279 279 278 278 277 277 276 277 277 277 277 277 278 278 278 278 278 279 279 279 279 279 279 279
268 269 271 274 275 275 274 274 274 275 275 274 273 272 270 268 269 272 275 276 275 272 270 267 266 265 264 263 261 258 257 256 256 257 256 256 258 264 273 281 286 288 291 292 293 293 293 293 292 291 289 287 285 283 281 280 279 279 278 277 277 276 275 275 275 275 274 274 274 275 275 276 276 276 276 276 276 276 276 276 276 276 277 277 277 277
267 269 271 272 273 274 274 274 275 275 274 272 271 271 269 268 268 270 273 274 272 269 266 263 263 262 259 260 260 259 257 256 255 255 254 254 259 267 277 284 286 287 289 290 292 293 293 292 291 290 289 287 285 283 281 280 280 279 279 278 278 277 276 275 275 275 275 275 275 275 276 276 276 276 276 276 275 275 274 274 274 274 275 275 275 275
266 268 269 270 272 273 273 274 274 272 271 271 271 271 269 268 267 268 270 270 269 267 263 261 261 260 256 254 257 258 258 258 256 254 255 258 265 273 279 283 284 286 288 290 293 294 295 294 293 291 289 287 285 284 283 283 283 283 283 283 283 281 280 279 278 278 278 278 278 278 278 278 278 278 277 276 275 275 274 274 274 274 275 274 274 275
265 265 268 271 273 273 273 272 271 269 269 270 270 269 269 267 265 265 266 266 266 264 261 259 260 260 257 253 252 254 257 258 258 258 260 264 270 274 278 280 283 286 288 291 295 297 297 297 295 293 290 288 287 286 285 285 284 284 284 284 283 283 283 282 282 282 282 282 282 282 281 281 280 279 279 278 277 277 276 276 276 276 276 276 276 276
264 266 269 271 272 272 271 269 267 267 267 267 267 267 267 265 263 263 263 263 262 261 260 259 259 260 260 257 252 251 252 254 257 260 263 267 270 273 276 279 283 286 289 293 297 299 298 297 295 294 293 291 290 289 288 287 285 284 283 283 283 283 283 283 283 283 283 283 283 282 282 282 282 281 281 280 280 280 279 279 279 278 278 278 277 277
266 267 268 269 269 268 267 265 265 265 265 265 266 265 264 263 261 260 259 259 258 258 259 260 258 259 262 263 261 258 257 258 261 263 266 270 272 274 278 281 284 286 290 295 298 298 296 295 295 294 294 294 292 291 290 288 286 285 285 284 283 283 282 282 282 282 282 282 283 283 283 282 282 282 281 281 281 281 281 281 281 281 280 279 279 278
266 266 266 265 264 264 263 264 264 263 263 263 263 262 261 261 260 258 257 256 257 258 259 258 257 259 263 268 271 271 271 272 272 272 273 275 277 279 281 284 287 291 296 299 299 297 295 294 294 294 293 293 292 291 290 289 287 286 285 284 284 283 283 283 284 284 285 285 284 284 283 283 283 283 283 283 283 283 283 283 282 282 281 281 280 279
263 263 262 262 262 263 264 264 263 263 262 261 259 259 259 259 259 258 257 258 259 260 259 258 259 261 265 270 274 276 278 278 278 279 280 280 282 284 286 289 293 297 300 301 300 298 297 296 295 294 293 292 292 291 291 290 289 288 287 286 287 287 287 287 288 288 287 287 287 286 286 285 285 285 285 285 284 284 284 283 282 282 281 281 281 280
260 260 260 261 262 263 262 261 260 259 258 257 257 257 257 258 259 260 261 261 261 261 260 260 263 265 268 272 274 276 278 279 281 282 283 284 286 288 290 294 297 299 300 299 298 297 297 297 297 296 295 295 295 295 294 293 293 292 292 292 292 292 292 291 290 290 289 289 289 288 288 287 287 286 286 285 285 284 284 283 282 282 281 281 281 281
257 258 259 260 260 258 257 256 255 255 256 258 260 261 261 261 262 263 263 261 260 260 261 263 265 269 272 274 275 276 277 279 281 283 284 286 289 292 294 296 297 297 297 297 295 295 295 296 296 296 296 297 297 296 296 295 295 295 295 295 294 293 293 292 291 291 290 290 289 289 288 287 287 286 285 285 284 284 283 283 282 282 282 282 282 281
257 258 259 259 258 256 254 253 253 255 259 262 264 266 267 268 267 266 264 262 262 262 262 263 267 271 274 276 277 279 280 281 282 282 285 289 292 294 294 294 294 295 295 294 293 293 293 294 294 295 295 295 295 295 295 295 295 296 296 295 294 293 292 292 291 291 291 290 290 289 288 287 286 285 285 284 284 283 283 283 283 283 283 283 283 282
259 260 259 258 256 255 255 255 256 260 263 265 267 270 272 271 269 268 267 266 267 267 265 267 271 273 276 277 277 279 281 282 282 284 287 291 293 292 291 291 293 293 293 291 290 291 291 292 293 293 293 293 293 293 294 295 296 296 296 295 294 293 293 292 292 291 290 290 289 288 287 286 286 285 285 284 284 284 284 284 284 284 284 284 284 284
261 261 259 258 256 255 255 257 259 263 265 268 272 274 274 271 269 268 268 268 268 268 268 269 272 274 276 276 277 279 281 283 284 287 290 291 291 289 289 291 292 292 291 290 289 290 290 291 292 292 291 291 292 294 295 296 296 296 295 294 293 292 292 291 291 290 289 289 288 287 286 286 285 285 285 284 284 284 284 284 284 284 285 285 285 285
261 261 260 259 258 257 257 259 261 264 268 272 275 275 273 271 271 269 268 267 267 268 268 268 270 274 275 277 278 281 283 285 287 289 289 288 287 288 290 291 292 291 290 289 288 289 290 291 291 291 292 293 294 295 296 296 295 295 294 293 293 292 292 291 290 289 289 288 288 287 287 286 286 285 285 285 285 285 285 285 285 286 285 285 285 284
260 259 259 259 259 258 259 261 264 269 274 275 275 274 273 272 270 267 266 266 265 265 266 267 270 273 275 278 281 282 286 289 289 288 287 287 288 290 291 291 290 288 287 287 287 289 291 291 292 292 293 295 296 297 297 296 295 295 294 294 294 293 292 291 290 290 289 289 288 288 287 287 286 286 286 286 286 286 286 286 286 286 285 285 284 284
258 258 258 259 260 260 262 266 271 275 274 272 272 273 273 269 266 265 265 265 263 263 266 270 273 276 279 283 286 289 292 292 289 288 288 288 289 290 289 288 286 285 285 286 288 290 291 292 293 294 295 297 298 297 296 295 295 294 294 294 293 292 291 290 290 289 288 288 287 287 286 286 286 286 286 286 287 287 287 286 286 285 285 286 286 286
259 259 260 260 261 263 266 269 270 270 268 267 269 270 268 263 261 263 266 265 263 264 268 273 279 285 288 290 293 296 294 290 288 288 288 288 288 287 285 284 284 284 285 287 290 291 292 293 293 295 296 297 297 296 294 293 293 293 293 293 293 291 290 289 289 288 287 287 286 286 286 286 287 287 287 287 287 287 287 287 286 286 286 286 286 286
257 256 256 257 259 263 266 266 266 266 264 263 265 266 264 260 259 264 267 265 262 264 268 275 284 289 290 292 295 294 291 289 289 288 288 287 286 285 284 283 283 284 286 288 290 291 292 293 295 296 297 297 296 295 294 294 294 294 294 293 292 291 290 289 288 288 287 287 287 287 287 287 288 288 288 288 288 287 287 287 287 287 286 286 286 286
255 256 258 259 261 264 265 264 263 262 260 261 266 268 265 260 259 263 265 260 258 261 268 276 282 286 287 289 290 287 286 286 286 286 285 284 284 284 284 284 284 286 289 290 291 292 293 294 296 297 296 296 295 295 295 295 296 295 295 293 292 290 289 289 288 288 287 287 287 288 288 289 289 289 289 289 289 289 288 288 287 287 287 287 287 287
258 260 262 262 262 262 262 262 262 262 262 266 272 272 267 260 255 257 260 256 254 259 268 275 280 283 285 285 283 282 283 283 282 282 281 282 282 282 283 284 286 289 290 291 291 292 294 296 297 297 296 296 295 295 296 296 296 295 294 293 292 291 290 289 288 288 287 288 288 289 290 290 290 290 290 289 289 289 288 288 288 288 288 288 287 287
259 260 260 260 260 260 262 266 269 270 269 271 273 272 267 260 254 254 256 254 254 260 269 276 281 283 284 282 280 279 279 278 277 279 280 281 281 281 283 285 287 288 289 290 292 294 295 297 297 296 295 295 295 295 295 295 294 293 292 291 290 289 288 287 287 287 288 289 290 290 290 290 289 289 289 289 288 288 288 287 287 288 288 288 288 288
258 259 259 258 259 260 262 264 266 265 264 265 265 264 262 257 253 252 252 253 258 266 273 278 282 282 281 279 276 275 274 274 276 278 280 281 281 283 285 286 288 289 290 292 294 296 296 296 295 294 294 294 295 294 294 293 293 292 291 289 289 288 287 287 287 288 290 290 290 289 289 289 288 288 287 287 287 287 287 287 287 287 287 287 287 288
257 257 257 258 260 261 261 261 261 260 260 259 257 255 253 250 248 250 253 259 266 272 276 280 281 279 278 275 272 271 273 276 278 279 280 281 283 285 287 288 290 291 292 294 296 296 296 294 293 294 294 294 293 292 292 292 291 290 289 289 288 287 287 287 289 290 290 289 289 289 288 288 287 287 287 287 287 287 287 287 287 288 288 288 288 288
259 259 259 262 263 263 261 260 259 258 257 256 254 253 252 251 253 258 264 269 272 275 279 281 277 275 274 270 269 271 275 277 279 279 280 283 285 286 288 289 291 292 294 296 296 294 293 293 294 294 294 293 292 292 291 291 290 289 288 288 287 286 287 288 289 289 289 288 288 288 288 287 287 287 287 287 287 288 288 288 288 288 288 289 289 289
260 261 263 264 263 261 258 256 255 255 255 255 254 254 256 259 262 266 269 273 275 277 279 276 271 271 271 269 270 274 276 277 278 280 283 285 286 287 289 290 292 293 295 295 293 293 293 294 294 294 293 293 292 291 290 289 288 287 287 286 286 287 288 288 288 288 288 288 288 288 288 287 287 288 288 288 288 289 289 289 289 289 289 290 290 290
259 261 263 263 262 260 259 257 254 253 253 253 254 256 259 261 264 267 271 274 275 275 273 269 267 269 270 271 274 277 277 278 281 283 285 286 287 289 290 292 293 293 293 293 292 292 293 294 294 293 293 292 291 289 288 287 286 286 286 286 286 287 287 287 287 287 288 288 288 288 288 288 288 289 289 289 289 290 290 290 290 290 291 291 291 291
260 260 261 261 259 259 259 256 253 252 252 253 255 258 260 262 265 269 272 271 270 268 266 264 265 269 272 273 275 277 279 281 284 285 286 287 289 290 291 291 292 292 291 291 291 292 293 293 293 292 290 289 287 286 286 285 285 285 286 286 285 285 285 286 286 287 288 288 288 288 288 288 289 289 289 290 290 291 291 291 291 291 291 291 290 290
258 258 258 257 256 256 255 254 254 254 254 255 257 260 263 265 267 267 266 265 264 263 263 264 266 270 273 274 277 279 282 284 285 286 287 288 289 290 290 290 290 290 290 289 290 291 291 290 289 287 286 285 285 284 284 284 284 285 285 284 284 284 285 286 286 287 287 287 287 288 288 289 289 290 290 291 291 291 291 291 291 291 291 290 289 288
256 257 257 256 255 254 254 255 255 254 255 258 261 261 262 263 262 261 261 261 261 261 264 267 270 272 275 278 281 283 284 285 286 287 287 288 288 288 287 288 288 287 287 288 288 288 287 286 285 284 284 284 283 283 283 283 283 284 283 283 284 285 286 286 286 286 286 287 288 288 289 289 290 290 290 290 291 291 291 291 291 290 288 288 288 288
255 255 254 253 254 254 254 254 253 254 257 261 259 257 258 258 258 258 259 260 261 265 268 271 273 276 279 282 283 284 285 286 286 287 287 286 286 285 286 286 286 286 286 287 287 286 285 284 283 283 283 283 283 283 283 283 284 284 283 283 285 285 285 285 286 286 287 288 289 289 289 289 290 290 290 290 291 291 291 290 288 287 287 288 289 290
253 252 251 252 252 252 252 252 251 254 257 257 255 256 257 257 258 261 261 260 263 267 271 274 278 281 283 284 284 285 285 285 285 287 286 284 284 285 286 286 285 285 285 285 285 284 283 283 282 282 282 283 283 283 284 285 285 284 284 284 284 285 285 286 287 287 288 288 288 288 289 289 289 290 290 291 291 290 288 287 287 288 289 291 291 292
252 251 250 250 250 250 251 251 251 252 253 252 255 257 257 257 260 262 263 262 263 269 275 279 282 283 284 284 284 284 283 282 285 286 283 281 284 285 285 284 284 284 284 283 283 283 282 282 282 282 282 283 283 284 285 285 284 284 284 285 285 286 286 287 287 287 287 287 288 288 289 289 290 290 290 290 289 288 287 288 289 290 292 292 293 294
249 248 247 248 249 249 251 252 253 253 253 252 255 256 257 260 262 263 266 266 266 273 279 283 285 285 284 283 282 282 282 283 286 285 281 282 285 285 283 283 283 282 282 282 282 282 281 282 283 283 284 284 285 285 285 285 285 285 285 285 286 287 287 287 287 287 287 288 288 289 289 289 289 289 289 288 288 288 289 290 291 292 293 294 295 296
247 247 247 250 252 252 255 257 258 258 257 255 255 256 260 265 267 270 273 272 271 277 284 285 285 283 282 282 283 283 284 286 287 285 282 284 285 283 282 282 282 281 281 281 281 282 282 283 283 284 285 285 286 286 286 285 285 286 286 287 288 288 288 288 287 287 288 289 289 289 289 289 290 290 289 289 289 290 291 292 292 293 294 296 296 298
249 250 252 255 257 259 262 264 264 264 263 261 261 262 266 271 275 278 281 280 279 282 284 283 281 282 283 284 285 285 286 286 285 284 283 284 283 282 282 282 281 281 281 281 282 282 283 284 284 285 286 286 286 286 286 287 288 288 288 288 288 288 288 288 288 288 289 290 290 290 291 291 291 291 290 290 290 291 292 293 294 295 296 297 298 299
253 255 258 261 263 266 270 272 273 272 270 269 271 273 275 278 281 283 285 285 284 283 283 283 283 284 285 285 285 285 285 284 283 283 283 283 282 282 282 281 281 281 281 282 282 283 284 285 286 286 287 287 288 288 289 290 290 290 289 288 289 289 288 288 289 290 291 292 293 293 294 293 292 291 290 291 292 293 293 294 295 295 296 297 299 300
258 262 265 266 267 271 274 277 280 279 276 277 281 283 283 284 284 284 284 284 284 283 284 284 285 285 285 285 285 284 284 283 283 283 283 283 282 282 281 281 282 282 282 282 283 284 285 286 286 287 288 288 290 291 291 291 290 289 288 288 289 288 288 290 292 293 294 295 296 296 295 294 293 292 292 293 294 294 294 294 294 295 296 298 300 301
263 267 269 270 272 276 278 280 282 282 282 284 286 287 285 284 283 283 282 283 283 283 284 283 283 283 283 283 283 283 283 283 283 282 282 282 282 281 282 282 282 282 283 284 284 285 286 286 287 288 289 290 291 291 290 289 288 288 288 289 289 290 291 294 295 296 297 298 297 297 296 294 293 292 293 294 294 294 293 293 294 295 297 299 301 302
265 268 272 275 277 279 281 282 283 285 286 286 287 286 285 283 281 281 281 281 281 280 280 281 281 281 281 281 281 281 281 281 281 280 281 281 281 281 282 282 282 282 283 284 285 286 286 287 288 289 290 290 290 289 288 288 287 288 289 290 291 293 295 297 298 299 299 299 299 298 296 294 292 292 293 294 294 293 293 293 294 296 298 299 301 304
269 271 275 277 279 280 282 283 284 285 286 286 286 284 281 279 278 279 279 278 277 276 277 279 279 279 279 279 280 280 280 279 279 279 280 281 282 282 282 282 282 283 284 285 286 287 288 289 289 289 289 289 287 287 287 287 288 290 291 292 293 295 297 298 299 299 299 299 300 299 296 293 292 293 293 294 293 293 293 293 295 296 298 300 302 304
272 274 276 277 279 280 281 282 284 285 285 285 283 281 279 278 278 277 276 275 274 274 276 276 277 277 277 278 279 279 279 279 279 280 281 282 283 283 283 283 283 284 285 286 287 288 289 289 289 288 287 286 286 286 287 287 289 291 292 293 295 297 298 299 299 299 299 299 300 298 295 292 292 293 294 294 294 293 293 294 296 297 299 301 302 304
274 275 276 276 277 278 279 281 282 282 283 283 281 280 279 278 276 274 273 272 273 274 276 277 277 277 278 278 279 279 279 280 281 282 282 283 283 283 284 284 285 286 287 287 287 287 287 287 286 285 285 286 287 287 287 288 289 290 292 294 296 297 297 298 298 298 298 298 299 297 294 292 293 294 295 295 294 294 294 295 297 298 299 301 303 304
273 274 274 276 277 277 278 279 280 281 281 280 278 277 275 273 272 272 272 273 274 277 278 278 278 278 279 279 280 280 280 281 282 282 282 283 283 284 286 286 287 287 287 286 286 285 285 283 283 284 286 287 287 287 287 289 290 290 292 294 295 295 296 296 296 296 296 297 297 296 293 292 293 294 294 294 294 294 294 295 297 298 300 301 303 304
273 273 275 276 277 277 278 279 279 278 276 274 272 271 271 271 272 273 274 276 277 278 279 279 279 279 279 280 281 282 283 283 283 283 283 284 285 286 286 287 286 286 285 284 283 283 283 282 282 284 285 286 286 287 288 289 290 291 293 293 293 293 294 294 294 294 294 295 295 294 292 290 291 292 292 292 293 293 294 295 296 298 300 301 303 304
274 276 277 277 276 276 276 275 273 271 271 271 271 272 272 273 274 275 276 278 278 279 279 279 279 280 281 282 283 284 284 285 285 284 285 286 286 286 285 284 284 283 282 282 282 283 282 282 282 283 284 285 285 286 288 289 290 292 292 292 291 291 292 292 292 292 292 292 292 291 290 289 288 289 289 290 291 292 292 294 295 297 299 301 302 304
274 275 275 273 273 273 273 272 270 270 271 272 272 272 272 273 274 275 277 278 278 279 279 279 280 282 284 285 285 285 285 286 286 286 286 286 285 284 283 282 281 282 282 282 282 282 281 281 281 282 283 284 284 285 286 288 289 290 290 289 290 290 290 290 290 290 290 289 289 289 288 288 287 287 288 288 289 290 291 293 294 296 298 300 302 303
Height
5826 5825 5827 5828 5828 5826 5825 5825 5826 5826 5826 5826 5825 5825 5825 5826 5826 5826 5824 5823 5823 5822 5824 5824 5823 5824 5823 5822 5823 5822 5822 5822 5821 5821 5821 5821 5821 5821 5821 5821 5821 5822 5822 5822 5821 5821 5820 5820 5820 5819 5818 5818 5817 5817 5816 5816 5815 5815 5814 5813 5813 5812 5812 5811 5810 5810 5809 5808 5807 5807 5806 5805 5804 5803 5802 5802 5801 5800 5799 5798 5797 5796 5795 5794 5793 5791
5821 5821 5824 5825 5822 5821 5821 5822 5822 5822 5822 5821 5821 5821 5821 5821 5821 5820 5819 5819 5819 5818 5819 5819 5819 5819 5818 5818 5819 5819 5818 5818 5818 5818 5818 5818 5818 5818 5818 5819 5819 5819 5819 5819 5818 5818 5817 5816 5816 5815 5814 5814 5813 5813 5812 5811 5811 5810 5810 5809 5808 5808 5807 5806 5806 5805 5804 5803 5802 5801 5801 5800 5799 5798 5797 5796 5795 5794 5793 5792 5791 5791 5789 5788 5787 5786
5816 5817 5820 5819 5817 5818 5818 5818 5817 5817 5817 5817 5817 5817 5817 5817 5816 5815 5814 5814 5814 5814 5815 5815 5815 5814 5814 5815 5815 5815 5814 5814 5814 5814 5815 5815 5815 5815 5816 5816 5816 5816 5816 5815 5815 5814 5814 5813 5812 5811 5811 5810 5809 5809 5808 5807 5807 5806 5806 5805 5804 5803 5802 5802 5801 5800 5799 5798 5797 5796 5795 5794 5793 5792 5791 5790 5789 5788 5787 5786 5785 5784 5783 5782 5780 5779
5811 5813 5814 5813 5813 5814 5813 5813 5813 5812 5812 5813 5812 5812 5812 5813 5811 5810 5810 5810 5810 5810 5810 5810 5810 5810 5810 5811 5811 5811 5811 5811 5811 5811 5812 5812 5812 5812 5813 5813 5813 5812 5812 5812 5811 5810 5810 5809 5808 5808 5807 5806 5805 5805 5804 5803 5803 5802 5802 5801 5800 5799 5798 5797 5796 5795 5794 5793 5792 5791 5790 5789 5788 5787 5785 5784 5783 5782 5781 5780 5779 5778 5776 5775 5774 5773
5806 5807 5808 5808 5809 5809 5808 5808 5808 5808 5807 5807 5808 5807 5808 5808 5806 5805 5806 5806 5806 5806 5806 5806 5806 5807 5807 5807 5807 5807 5807 5807 5808 5808 5808 5809 5809 5809 5809 5809 5809 5809 5808 5807 5807 5806 5805 5805 5804 5804 5803 5802 5802 5801 5800 5799 5799 5798 5797 5796 5795 5795 5793 5792 5791 5790 5789 5788 5787 5786 5784 5783 5782 5781 5780 5779 5777 5776 5775 5774 5773 5772 5771 5769 5768 5766
5800 5801 5803 5803 5803 5803 5802 5802 5803 5803 5802 5802 5802 5803 5802 5802 5802 5801 5801 5801 5801 5801 5802 5801 5801 5803 5803 5803 5803 5803 5803 5804 5804 5805 5805 5806 5806 5806 5806 5806 5805 5805 5804 5803 5802 5802 5801 5801 5800 5800 5799 5798 5797 5797 5796 5795 5794 5793 5792 5791 5791 5790 5788 5787 5786 5785 5783 5782 5781 5780 5779 5778 5777 5776 5774 5773 5772 5771 5770 5769 5767 5766 5765 5764 5762 5761
5795 5797 5798 5797 5797 5797 5796 5797 5799 5798 5796 5796 5797 5797 5797 5797 5797 5797 5797 5796 5796 5797 5797 5797 5797 5799 5800 5800 5799 5799 5799 5800 5801 5802 5802 5802 5802 5802 5802 5801 5801 5800 5800 5799 5798 5798 5797 5797 5796 5795 5794 5793 5792 5791 5790 5789 5788 5788 5787 5786 5785 5784 5783 5781 5780 5779 5778 5777 5775 5774 5773 5772 5771 5770 5769 5768 5767 5765 5764 5763 5762 5760 5759 5758 5756 5755
5791 5792 5792 5792 5792 5791 5791 5792 5793 5792 5790 5791 5792 5792 5792 5792 5792 5792 5792 5791 5791 5792 5792 5793 5794 5794 5795 5796 5796 5795 5796 5797 5798 5798 5798 5799 5799 5798 5798 5797 5797 5796 5795 5795 5794 5793 5793 5792 5791 5790 5789 5788 5786 5785 5784 5783 5782 5782 5781 5780 5779 5777 5776 5775 5774 5773 5772 5771 5770 5768 5767 5766 5765 5764 5762 5761 5760 5759 5758 5757 5755 5754 5753 5752 5750 5748
5785 5786 5786 5787 5786 5786 5787 5787 5786 5785 5784 5786 5787 5787 5787 5787 5787 5787 5787 5786 5787 5787 5788 5790 5791 5789 5789 5792 5793 5792 5793 5794 5794 5795 5795 5795 5795 5794 5793 5793 5792 5791 5790 5790 5789 5788 5787 5787 5786 5784 5783 5782 5781 5780 5779 5778 5777 5776 5775 5774 5772 5771 5770 5769 5768 5767 5766 5765 5764 5762 5761 5760 5758 5757 5756 5754 5753 5752 5751 5750 5749 5748 5746 5745 5744 5742
5779 5780 5781 5781 5780 5781 5781 5781 5780 5780 5779 5780 5781 5782 5782 5782 5782 5782 5781 5782 5782 5782 5784 5787 5787 5784 5783 5786 5789 5790 5790 5791 5791 5791 5791 5791 5790 5789 5789 5788 5787 5787 5786 5785 5784 5783 5782 5781 5780 5779 5778 5777 5776 5775 5774 5773 5771 5770 5769 5768 5767 5766 5764 5763 5762 5761 5760 5758 5757 5756 5754 5753 5752 5750 5749 5748 5746 5745 5744 5743 5742 5741 5740 5738 5737 5736
5774 5775 5775 5775 5775 5775 5775 5775 5775 5775 5775 5776 5777 5777 5777 5777 5777 5777 5777 5777 5777 5777 5780 5782 5782 5780 5778 5779 5783 5785 5785 5786 5787 5787 5786 5786 5785 5784 5784 5783 5782 5782 5781 5780 5779 5778 5777 5776 5775 5774 5773 5772 5771 5770 5768 5767 5765 5764 5763 5762 5761 5760 5758 5757 5755 5754 5753 5752 5750 5749 5748 5746 5745 5743 5742 5741 5739 5738 5737 5736 5735 5733 5732 5731 5729 5728
5769 5769 5770 5770 5770 5769 5770 5770 5770 5770 5771 5772 5772 5772 5772 5772 5772 5772 5772 5773 5772 5774 5777 5777 5776 5775 5774 5774 5776 5778 5779 5780 5780 5780 5780 5779 5779 5778 5778 5777 5776 5775 5774 5773 5772 5771 5771 5770 5769 5769 5767 5766 5765 5763 5762 5761 5759 5758 5757 5756 5754 5753 5752 5750 5748 5747 5746 5744 5743 5742 5740 5739 5737 5736 5735 5733 5732 5731 5729 5728 5727 5725 5724 5722 5721 5719
5763 5763 5764 5764 5764 5765 5766 5766 5766 5767 5767 5767 5768 5768 5768 5768 5768 5768 5768 5769 5769 5770 5772 5772 5771 5770 5770 5771 5771 5772 5772 5772 5772 5772 5772 5772 5771 5771 5770 5769 5769 5767 5766 5765 5764 5763 5763 5762 5762 5761 5760 5759 5758 5757 5756 5754 5753 5752 5750 5749 5747 5746 5744 5742 5741 5739 5738 5736 5735 5733 5732 5731 5730 5728 5727 5725 5724 5722 5721 5719 5718 5716 5715 5713 5711 5710
5757 5758 5759 5759 5761 5762 5761 5761 5762 5763 5763 5763 5763 5764 5763 5763 5763 5764 5765 5766 5766 5766 5767 5767 5766 5765 5766 5768 5768 5767 5768 5767 5766 5766 5765 5765 5765 5764 5763 5763 5762 5760 5759 5758 5757 5757 5756 5755 5754 5753 5752 5751 5750 5749 5748 5746 5745 5744 5742 5741 5739 5737 5735 5734 5732 5731 5729 5728 5727 5725 5724 5723 5722 5720 5719 5717 5715 5714 5712 5710 5708 5707 5706 5704 5702 5700
5752 5753 5754 5755 5756 5756 5756 5757 5757 5757 5758 5758 5759 5759 5759 5759 5760 5761 5761 5761 5761 5762 5762 5762 5761 5761 5762 5763 5763 5763 5763 5763 5762 5761 5760 5759 5759 5758 5757 5756 5755 5754 5753 5753 5752 5751 5750 5749 5747 5746 5745 5744 5742 5741 5740 5739 5737 5736 5734 5733 5731 5729 5727 5726 5724 5723 5721 5720 5719 5718 5716 5715 5714 5712 5710 5709 5707 5705 5703 5701 5700 5698 5696 5694 5692 5691
5748 5749 5750 5750 5751 5751 5752 5752 5752 5752 5753 5754 5755 5754 5755 5757 5758 5758 5757 5756 5757 5757 5756 5757 5757 5757 5757 5757 5757 5757 5757 5758 5757 5756 5755 5754 5753 5753 5752 5751 5750 5748 5748 5747 5747 5746 5744 5743 5742 5741 5739 5738 5736 5735 5733 5732 5731 5729 5728 5726 5724 5722 5720 5718 5717 5715 5714 5713 5711 5710 5708 5707 5705 5703 5701 5699 5697 5696 5694 5692 5690 5688 5686 5684 5682 5680
5744 5744 5745 5746 5746 5747 5747 5748 5748 5748 5749 5749 5749 5750 5752 5753 5753 5752 5752 5752 5752 5751 5751 5753 5753 5753 5753 5752 5753 5752 5751 5751 5751 5750 5750 5749 5748 5747 5746 5745 5744 5742 5742 5742 5741 5740 5739 5738 5737 5735 5734 5732 5730 5729 5727 5726 5724 5723 5721 5718 5716 5715 5713 5711 5710 5708 5707 5705 5703 5702 5700 5698 5696 5694 5692 5690 5688 5686 5684 5683 5681 5679 5677 5674 5672 5670
5739 5739 5740 5741 5741 5742 5742 5743 5743 5744 5744 5744 5745 5747 5748 5747 5746 5746 5746 5746 5747 5745 5746 5748 5748 5748 5748 5747 5748 5747 5746 5745 5745 5744 5744 5743 5742 5741 5740 5738 5737 5736 5735 5735 5735 5734 5733 5732 5731 5729 5727 5725 5724 5722 5721 5719 5718 5716 5714 5711 5709 5707 5705 5704 5702 5700 5699 5697 5695 5693 5691 5689 5687 5685 5683 5681 5679 5677 5675 5673 5671 5670 5667 5665 5663 5661
5734 5734 5735 5735 5736 5737 5737 5738 5737 5738 5740 5741 5741 5742 5741 5739 5740 5740 5739 5740 5740 5740 5741 5743 5743 5743 5742 5742 5742 5741 5739 5739 5740 5739 5739 5737 5736 5735 5733 5731 5730 5730 5729 5729 5729 5729 5728 5726 5724 5722 5720 5718 5717 5716 5714 5713 5711 5709 5706 5704 5702 5700 5698 5696 5694 5692 5690 5688 5686 5684 5682 5680 5678 5676 5674 5673 5671 5668 5666 5664 5662 5660 5658 5656 5654 5652
5729 5729 5729 5730 5731 5732 5732 5731 5732 5734 5736 5736 5736 5735 5734 5733 5733 5733 5733 5734 5734 5734 5735 5736 5736 5736 5737 5736 5735 5735 5734 5734 5734 5733 5732 5730 5729 5727 5726 5724 5724 5724 5724 5723 5723 5723 5721 5719 5717 5715 5713 5712 5710 5709 5707 5705 5703 5700 5698 5696 5694 5691 5689 5687 5685 5683 5681 5679 5677 5675 5673 5671 5669 5667 5665 5663 5661 5659 5657 5655 5653 5650 5648 5647 5645 5643
5723 5723 5723 5725 5725 5725 5726 5727 5729 5730 5730 5729 5729 5728 5728 5727 5726 5727 5727 5727 5728 5728 5729 5730 5730 5729 5730 5728 5727 5728 5729 5727 5726 5725 5724 5723 5721 5720 5719 5718 5718 5718 5717 5717 5717 5716 5714 5711 5709 5707 5706 5705 5703 5701 5699 5697 5694 5692 5690 5688 5686 5683 5680 5678 5676 5674 5672 5671 5669 5667 5664 5662 5660 5658 5656 5654 5652 5649 5647 5645 5643 5641 5639 5637 5635 5633
5717 5718 5718 5719 5719 5720 5721 5723 5724 5723 5723 5722 5722 5721 5721 5720 5720 5720 5720 5721 5722 5723 5723 5723 5722 5721 5720 5718 5718 5721 5721 5719 5719 5718 5716 5715 5714 5713 5713 5712 5712 5711 5710 5711 5710 5708 5706 5703 5701 5700 5699 5698 5696 5694 5691 5689 5687 5685 5683 5681 5678 5675 5672 5670 5667 5665 5663 5661 5659 5657 5655 5653 5651 5649 5647 5645 5643 5640 5638 5636 5634 5632 5630 5628 5625 5623
5711 5710 5711 5711 5712 5714 5715 5716 5716 5715 5716 5715 5714 5714 5713 5713 5714 5714 5714 5716 5717 5716 5715 5714 5714 5713 5712 5712 5713 5714 5713 5711 5710 5710 5708 5707 5706 5706 5707 5706 5705 5704 5704 5704 5702 5700 5697 5696 5694 5693 5692 5689 5688 5685 5683 5681 5679 5677 5674 5672 5669 5666 5664 5661 5658 5656 5654 5652 5650 5648 5646 5644 5642 5640 5638 5636 5634 5632 5629 5627 5625 5623 5621 5618 5616 5614
5703 5703 5704 5704 5705 5707 5707 5708 5708 5707 5707 5707 5707 5708 5707 5707 5709 5708 5708 5710 5708 5708 5708 5706 5707 5709 5709 5710 5709 5708 5707 5705 5703 5702 5701 5700 5700 5700 5699 5698 5697 5697 5697 5696 5694 5691 5689 5688 5687 5685 5683 5681 5679 5676 5673 5671 5669 5667 5665 5662 5660 5657 5654 5651 5649 5647 5644 5642 5640 5639 5636 5634 5632 5630 5628 5626 5624 5623 5620 5618 5616 5613 5611 5609 5607 5604
5696 5696 5697 5697 5697 5698 5698 5698 5699 5699 5700 5701 5702 5702 5700 5701 5702 5700 5700 5701 5699 5701 5701 5698 5700 5705 5706 5705 5703 5701 5702 5700 5696 5694 5694 5694 5694 5693 5692 5690 5690 5689 5688 5687 5685 5683 5682 5680 5679 5677 5674 5672 5670 5667 5665 5662 5660 5658 5656 5653 5650 5647 5645 5642 5639 5637 5635 5633 5631 5629 5627 5625 5623 5621 5619 5617 5615 5613 5611 5609 5607 5604 5602 5599 5597 5594
5687 5688 5689 5688 5689 5689 5688 5689 5692 5694 5695 5694 5695 5695 5694 5694 5694 5693 5693 5692 5691 5693 5693 5692 5695 5700 5700 5697 5694 5695 5695 5692 5689 5688 5688 5687 5686 5685 5685 5684 5684 5683 5680 5678 5677 5676 5674 5672 5671 5668 5666 5663 5661 5659 5656 5654 5652 5650 5647 5644 5641 5638 5635 5632 5630 5628 5626 5624 5622 5620 5618 5616 5614 5612 5610 5609 5607 5605 5602 5600 5598 5596 5593 5590 5587 5584
5679 5680 5681 5682 5682 5681 5681 5683 5686 5687 5686 5685 5687 5688 5687 5687 5687 5686 5683 5684 5685 5684 5684 5688 5691 5691 5693 5689 5686 5688 5687 5683 5683 5683 5682 5680 5678 5676 5676 5676 5675 5674 5672 5670 5669 5668 5666 5664 5662 5660 5658 5656 5653 5650 5648 5645 5643 5641 5638 5635 5632 5629 5626 5623 5621 5619 5618 5616 5613 5611 5609 5608 5606 5604 5602 5600 5598 5596 5594 5592 5589 5587 5584 5581 5578 5574
5671 5672 5674 5675 5675 5674 5674 5675 5677 5678 5677 5678 5679 5681 5681 5680 5679 5677 5676 5678 5679 5674 5677 5685 5685 5681 5684 5682 5678 5680 5679 5676 5677 5676 5674 5673 5671 5669 5668 5667 5666 5665 5663 5662 5661 5659 5657 5655 5653 5651 5649 5647 5644 5642 5639 5637 5634 5631 5629 5626 5623 5620 5617 5615 5613 5611 5609 5607 5605 5603 5601 5599 5597 5595 5593 5592 5589 5587 5585 5583 5580 5577 5574 5571 5568 5565
5663 5665 5668 5669 5668 5667 5667 5667 5669 5670 5669 5670 5672 5674 5675 5673 5671 5670 5670 5671 5670 5668 5673 5678 5675 5673 5676 5673 5671 5673 5672 5669 5669 5667 5666 5666 5664 5662 5660 5658 5657 5656 5656 5655 5653 5651 5648 5646 5644 5643 5640 5638 5635 5632 5630 5628 5625 5623 5620 5617 5614 5611 5609 5607 5605 5602 5600 5599 5597 5595 5593 5591 5589 5586 5584 5582 5580 5577 5575 5573 5570 5567 5564 5561 5558 5554
5658 5658 5660 5660 5661 5661 5661 5660 5661 5661 5662 5663 5666 5669 5670 5667 5663 5662 5663 5665 5664 5664 5668 5667 5663 5666 5669 5665 5664 5666 5663 5660 5660 5660 5659 5658 5656 5654 5652 5650 5649 5648 5648 5647 5644 5642 5639 5637 5636 5633 5631 5629 5626 5623 5621 5619 5616 5614 5611 5608 5605 5603 5601 5599 5597 5595 5593 5591 5589 5587 5584 5582 5579 5577 5575 5572 5570 5568 5565 5563 5560 5557 5554 5551 5547 5544
5652 5652 5652 5654 5653 5653 5654 5654 5654 5654 5656 5657 5660 5665 5663 5658 5654 5655 5660 5662 5658 5657 5660 5657 5653 5658 5661 5657 5656 5656 5652 5651 5652 5652 5651 5649 5647 5646 5644 5642 5641 5641 5640 5638 5635 5633 5631 5629 5627 5625 5622 5620 5617 5614 5612 5610 5607 5606 5604 5601 5598 5596 5594 5591 5589 5587 5585 5583 5580 5577 5575 5572 5570 5568 5565 5562 5560 5558 5555 5552 5549 5546 5543 5540 5536 5533
5645 5645 5646 5647 5645 5645 5647 5647 5646 5648 5648 5648 5654 5659 5654 5649 5650 5653 5654 5655 5651 5649 5651 5648 5646 5651 5652 5649 5647 5645 5644 5644 5644 5643 5642 5640 5638 5637 5635 5635 5634 5633 5631 5628 5626 5625 5623 5621 5620 5617 5615 5612 5609 5606 5604 5601 5599 5597 5596 5594 5591 5588 5586 5584 5581 5579 5577 5574 5571 5568 5565 5563 5561 5558 5555 5553 5550 5548 5545 5542 5539 5536 5533 5529 5525 5521
5639 5639 5640 5640 5638 5639 5641 5639 5640 5641 5637 5639 5651 5655 5648 5644 5647 5647 5645 5646 5644 5642 5640 5639 5641 5645 5642 5638 5637 5636 5635 5635 5635 5634 5633 5631 5630 5628 5627 5627 5625 5624 5622 5620 5619 5617 5615 5614 5612 5609 5606 5604 5601 5599 5596 5593 5591 5589 5588 5586 5583 5581 5578 5576 5573 5570 5568 5565 5562 5559 5556 5554 5551 5548 5546 5543 5540 5537 5535 5531 5529 5525 5522 5518 5514 5510
5632 5633 5633 5632 5630 5631 5632 5633 5632 5628 5626 5636 5649 5649 5642 5638 5638 5636 5637 5638 5636 5634 5633 5632 5634 5636 5632 5630 5629 5627 5626 5627 5626 5625 5624 5623 5622 5620 5618 5618 5617 5615 5614 5613 5611 5610 5607 5605 5603 5600 5598 5595 5593 5590 5588 5585 5584 5582 5580 5577 5575 5573 5570 5568 5565 5562 5559 5556 5553 5551 5548 5544 5542 5539 5536 5533 5530 5527 5524 5521 5518 5514 5510 5507 5503 5500
5625 5625 5625 5625 5623 5622 5623 5624 5620 5617 5624 5636 5641 5639 5635 5632 5630 5629 5630 5631 5629 5627 5625 5623 5624 5626 5624 5621 5620 5618 5618 5617 5616 5617 5616 5614 5613 5611 5610 5609 5608 5607 5606 5604 5603 5601 5598 5596 5593 5591 5589 5587 5584 5582 5579 5578 5576 5574 5571 5569 5567 5564 5562 5559 5556 5553 5550 5548 5545 5541 5538 5535 5532 5529 5526 5523 5520 5518 5514 5510 5506 5503 5500 5497 5494 5491
5618 5617 5617 5616 5614 5613 5613 5612 5609 5612 5622 5629 5629 5630 5629 5626 5624 5622 5621 5623 5624 5619 5615 5615 5617 5617 5615 5612 5611 5610 5608 5607 5607 5609 5608 5605 5603 5603 5601 5600 5599 5598 5596 5595 5593 5591 5588 5587 5585 5582 5580 5578 5576 5574 5571 5570 5568 5565 5563 5561 5558 5556 5553 5551 5548 5545 5542 5539 5535 5532 5529 5526 5522 5519 5517 5514 5511 5508 5504 5499 5496 5494 5491 5488 5485 5482
5610 5609 5609 5607 5605 5605 5604 5603 5603 5606 5612 5619 5623 5625 5623 5619 5618 5615 5610 5614 5617 5610 5605 5608 5609 5607 5605 5603 5602 5600 5599 5598 5600 5602 5599 5595 5595 5595 5593 5591 5590 5588 5586 5584 5582 5581 5579 5577 5576 5574 5572 5570 5568 5566 5564 5563 5561 5558 5555 5553 5550 5548 5545 5542 5540 5536 5533 5530 5526 5523 5519 5516 5513 5510 5508 5505 5501 5497 5493 5490 5488 5485 5483 5480 5477 5474
5602 5601 5602 5599 5596 5598 5596 5594 5596 5596 5601 5614 5620 5617 5613 5610 5609 5606 5601 5604 5609 5603 5596 5598 5599 5597 5596 5594 5592 5591 5590 5589 5593 5594 5589 5586 5587 5587 5584 5582 5580 5578 5576 5575 5573 5572 5570 5568 5567 5565 5563 5561 5560 5559 5557 5555 5552 5550 5547 5545 5542 5540 5537 5534 5530 5527 5523 5520 5516 5513 5511 5507 5505 5502 5499 5495 5492 5488 5485 5482 5480 5477 5474 5472 5469 5466
5593 5593 5594 5590 5588 5590 5588 5586 5587 5587 5593 5608 5612 5607 5604 5602 5600 5597 5590 5591 5600 5597 5588 5586 5587 5586 5586 5584 5583 5583 5581 5581 5584 5583 5578 5577 5579 5578 5575 5573 5571 5569 5567 5565 5564 5563 5561 5560 5558 5556 5555 5553 5552 5550 5548 5546 5544 5542 5539 5537 5534 5530 5527 5524 5521 5517 5513 5510 5508 5505 5502 5499 5496 5493 5490 5486 5483 5480 5477 5475 5472 5469 5467 5465 5462 5460
5586 5585 5585 5582 5581 5583 5581 5578 5579 5580 5586 5597 5599 5597 5596 5592 5589 5585 5578 5580 5589 5587 5578 5576 5576 5575 5576 5576 5575 5575 5574 5573 5573 5571 5568 5569 5570 5568 5566 5565 5562 5560 5558 5556 5555 5554 5553 5551 5550 5548 5547 5545 5543 5541 5539 5537 5535 5533 5530 5527 5524 5521 5518 5515 5511 5508 5505 5502 5499 5496 5494 5491 5488 5485 5481 5478 5475 5472 5470 5467 5465 5462 5460 5458 5455 5453
5577 5577 5576 5575 5575 5576 5573 5570 5569 5570 5577 5586 5586 5585 5585 5581 5576 5574 5569 5569 5573 5572 5568 5567 5566 5565 5567 5567 5566 5566 5565 5563 5562 5560 5560 5561 5560 5558 5557 5555 5553 5552 5550 5548 5547 5546 5544 5543 5541 5539 5538 5536 5533 5531 5529 5527 5525 5522 5519 5517 5515 5512 5509 5506 5503 5500 5497 5494 5491 5488 5485 5482 5479 5477 5474 5471 5468 5465 5462 5460 5458 5456 5453 5451 5449 5446
5570 5568 5566 5568 5569 5569 5566 5563 5559 5559 5570 5578 5573 5571 5573 5570 5564 5563 5562 5558 5558 5559 5559 5558 5556 5556 5557 5557 5558 5557 5555 5554 5553 5552 5552 5552 5551 5550 5548 5546 5545 5543 5541 5540 5539 5538 5536 5535 5533 5531 5528 5526 5523 5521 5519 5517 5514 5512 5510 5508 5506 5503 5501 5498 5495 5492 5489 5486 5483 5480 5477 5475 5472 5469 5466 5464 5461 5459 5456 5454 5452 5449 5447 5445 5443 5440
5562 5559 5557 5561 5563 5560 5557 5555 5551 5553 5564 5569 5562 5557 5561 5559 5554 5551 5550 5549 5548 5548 5549 5548 5548 5548 5547 5547 5548 5548 5547 5547 5545 5544 5543 5543 5542 5541 5540 5539 5537 5534 5533 5532 5530 5529 5527 5525 5523 5521 5519 5517 5514 5512 5509 5507 5505 5503 5502 5500 5498 5495 5492 5490 5487 5484 5481 5478 5475 5473 5470 5467 5464 5462 5459 5457 5455 5452 5450 5448 5445 5443 5441 5439 5436 5434
5554 5553 5552 5554 5555 5550 5547 5548 5547 5548 5554 5556 5551 5548 5547 5545 5542 5540 5539 5540 5540 5539 5539 5540 5540 5539 5538 5539 5540 5540 5540 5540 5538 5535 5535 5534 5534 5534 5532 5531 5529 5527 5525 5523 5521 5519 5518 5515 5514 5512 5509 5507 5505 5502 5500 5498 5496 5495 5494 5491 5488 5486 5484 5481 5478 5476 5473 5470 5468 5465 5463 5460 5457 5455 5453 5451 5449 5446 5444 5442 5440 5437 5435 5433 5430 5427
5546 5547 5546 5546 5544 5541 5540 5542 5542 5541 5543 5544 5541 5538 5535 5532 5531 5531 5530 5531 5530 5529 5530 5531 5530 5530 5531 5532 5532 5533 5533 5532 5530 5528 5527 5526 5526 5526 5524 5522 5520 5518 5516 5514 5512 5509 5507 5506 5504 5503 5500 5498 5496 5494 5492 5490 5488 5487 5485 5482 5480 5478 5476 5473 5471 5468 5466 5463 5461 5458 5456 5453 5451 5449 5447 5445 5443 5440 5438 5436 5434 5431 5429 5426 5424 5421
5538 5539 5538 5537 5536 5533 5533 5535 5535 5533 5534 5534 5530 5527 5524 5522 5521 5522 5521 5520 5519 5519 5521 5522 5522 5522 5523 5523 5525 5525 5524 5524 5523 5521 5520 5519 5518 5516 5514 5513 5511 5508 5507 5505 5503 5500 5497 5496 5494 5493 5492 5490 5488 5486 5484 5482 5480 5479 5477 5474 5472 5470 5468 5466 5463 5461 5458 5456 5454 5452 5449 5447 5444 5442 5441 5439 5437 5434 5432 5430 5428 5425 5422 5419 5417 5414
5531 5531 5528 5528 5529 5527 5525 5528 5528 5525 5525 5524 5520 5516 5515 5513 5512 5511 5510 5509 5510 5511 5513 5514 5514 5514 5514 5515 5516 5516 5516 5516 5515 5514 5513 5511 5508 5506 5504 5502 5501 5499 5496 5495 5493 5491 5489 5487 5485 5484 5483 5482 5480 5478 5476 5474 5473 5471 5469 5467 5465 5462 5460 5458 5456 5454 5452 5449 5447 5445 5443 5440 5438 5436 5435 5433 5430 5428 5426 5424 5421 5419 5416 5413 5410 5407
5524 5523 5520 5520 5521 5520 5519 5520 5520 5517 5516 5515 5511 5507 5506 5504 5502 5501 5499 5500 5503 5504 5505 5505 5504 5505 5505 5506 5505 5506 5508 5508 5507 5506 5504 5502 5500 5497 5494 5492 5490 5488 5486 5485 5483 5483 5482 5480 5478 5477 5476 5475 5472 5470 5468 5467 5465 5463 5462 5460 5458 5455 5453 5451 5449 5446 5444 5442 5440 5438 5436 5434 5432 5430 5428 5426 5424 5422 5419 5417 5415 5412 5409 5406 5403 5400
5514 5514 5515 5514 5512 5512 5512 5513 5511 5507 5506 5505 5501 5498 5496 5495 5493 5492 5491 5493 5495 5496 5496 5495 5494 5494 5496 5497 5496 5497 5498 5499 5498 5495 5493 5492 5491 5488 5484 5481 5480 5478 5477 5476 5475 5474 5474 5473 5472 5470 5469 5467 5465 5462 5460 5459 5457 5455 5454 5453 5450 5448 5446 5444 5441 5439 5437 5435 5433 5431 5430 5428 5426 5424 5422 5420 5418 5415 5413 5410 5408 5405 5402 5399 5396 5393
5507 5507 5509 5505 5502 5503 5505 5504 5500 5497 5495 5494 5492 5489 5487 5487 5486 5484 5484 5485 5486 5487 5486 5485 5484 5485 5487 5488 5488 5487 5487 5488 5486 5484 5483 5483 5481 5478 5475 5472 5471 5470 5469 5467 5467 5467 5467 5466 5465 5463 5462 5460 5458 5455 5453 5452 5449 5448 5446 5444 5443 5441 5438 5436 5434 5431 5429 5428 5425 5424 5422 5421 5419 5417 5415 5413 5411 5408 5406 5403 5400 5398 5396 5392 5389 5386
5502 5501 5499 5494 5493 5495 5496 5493 5490 5488 5487 5487 5483 5480 5479 5479 5478 5476 5476 5477 5477 5477 5476 5475 5476 5478 5479 5479 5477 5476 5476 5477 5475 5473 5473 5473 5471 5469 5466 5464 5463 5463 5462 5460 5459 5459 5459 5458 5457 5455 5454 5453 5450 5448 5446 5445 5442 5441 5438 5436 5435 5433 5430 5428 5426 5424 5422 5420 5418 5416 5415 5413 5412 5410 5407 5405 5403 5401 5398 5396 5393 5391 5389 5386 5382 5379